Torna al catalogo

NOAA 16 DEB

AttivoSSO
NORAD 41505·DEBRIS·🇺🇸 United States

Lanciato Sep 21, 2000 da Vandenberg Space Force Base

Loading…

Prossimi Passaggi (prossime 24 ore)

TLE

AggiornatoSource: Space-Track

Epoca: Sep 13, 2026, 05:03 UTC

1 41505U 00055MD  26256.21077397  .00004559  00000-0  13379-2 0  9990
2 41505  98.8509  31.6652 0032980 197.1156 162.8924 14.44010081550534

Traccia NOAA 16 DEB in tempo reale con AllMySat

Download on the App Store